Location: Izdebno
(52.6670°N, 16.2170°E)
Time: 10:12:59
(UTC+01:00)

Transit 2A - Pass Details

Date: 02 February 2023
Orbit: 591 x 964 km, 66.7° (Epoch: 21 March)

Event Time Altitude Azimuth Distance (km) Brightness Sun altitude
Rises 16:17:02 0° 169° (S) 2,995 9.4 2.5°
Reaches altitude 10° 16:19:47 10° 152° (SSE) 2,148 8.4 2.1°
Maximum altitude 16:23:14 19° 107° (ESE) 1,680 7.4 1.7°
Drops below altitude 10° 16:26:56 10° 62° (ENE) 2,331 7.9 1.2°
Sets 16:30:04 0° 47° (NE) 3,343 8.7 0.8°
